Time,TemperatureF,DewpointF,PressureIn,WindDirection,WindDirectionDegrees,WindSpeedMPH,WindSpeedGustMPH,Humidity,HourlyPrecipIn,Conditions,Clouds,dailyrainin,SoftwareType,DateUTC
2013-04-21 00:00:00,44.3,25.2,29.69,NNW,338,1.3,1.3,47,0.00,,,0.00,WUHU216HW,2013-04-21 04:00:00,
2013-04-21 00:01:00,44.3,25.2,29.69,NNW,338,1.3,1.3,47,0.00,,,0.00,WUHU216HW,2013-04-21 04:01:00,
2013-04-21 00:06:00,44.3,25.2,29.69,NNW,338,1.3,1.3,47,0.00,,,0.00,WUHU216HW,2013-04-21 04:06:00,
2013-04-21 00:30:00,43.7,25.3,29.69,NNE,23,2.0,2.0,48,0.00,,,0.00,WUHU216HW,2013-04-21 04:30:00,
2013-04-21 00:35:00,43.7,25.3,29.69,NNE,23,2.0,2.0,48,0.00,,,0.00,WUHU216HW,2013-04-21 04:35:00,
2013-04-21 01:00:00,43.4,24.9,29.71,North,0,4.3,4.3,48,0.00,,,0.00,WUHU216HW,2013-04-21 05:00:00,
2013-04-21 01:05:00,43.4,24.9,29.71,North,0,4.3,4.3,48,0.00,,,0.00,WUHU216HW,2013-04-21 05:05:00,
2013-04-21 01:30:00,41.4,25.0,29.71,North,0,2.7,2.7,52,0.00,,,0.00,WUHU216HW,2013-04-21 05:30:00,
2013-04-21 01:35:00,41.4,25.0,29.71,North,0,2.7,2.7,52,0.00,,,0.00,WUHU216HW,2013-04-21 05:35:00,
2013-04-21 02:00:00,41.9,25.1,29.72,North,0,4.7,4.7,51,0.00,,,0.00,WUHU216HW,2013-04-21 06:00:00,
2013-04-21 02:05:00,41.9,25.1,29.72,North,0,4.7,4.7,51,0.00,,,0.00,WUHU216HW,2013-04-21 06:05:00,
2013-04-21 02:30:00,41.4,24.6,29.72,North,0,2.2,2.2,51,0.00,,,0.00,WUHU216HW,2013-04-21 06:30:00,
2013-04-21 02:35:00,41.4,24.6,29.72,North,0,2.2,2.2,51,0.00,,,0.00,WUHU216HW,2013-04-21 06:35:00,
2013-04-21 03:00:00,41.4,24.1,29.73,NW,315,0.2,0.2,50,0.00,,,0.00,WUHU216HW,2013-04-21 07:00:00,
2013-04-21 03:05:00,41.4,24.1,29.73,NW,315,0.2,0.2,50,0.00,,,0.00,WUHU216HW,2013-04-21 07:05:00,
2013-04-21 03:30:00,38.9,23.9,29.74,North,0,1.3,1.3,55,0.00,,,0.00,WUHU216HW,2013-04-21 07:30:00,
2013-04-21 03:35:00,38.9,23.9,29.74,North,0,1.3,1.3,55,0.00,,,0.00,WUHU216HW,2013-04-21 07:35:00,
2013-04-21 04:00:00,37.8,24.3,29.76,NE,45,3.1,3.1,58,0.00,,,0.00,WUHU216HW,2013-04-21 08:00:00,
2013-04-21 04:05:00,37.8,24.3,29.76,NE,45,3.1,3.1,58,0.00,,,0.00,WUHU216HW,2013-04-21 08:05:00,
2013-04-21 04:30:00,37.4,24.8,29.77,North,0,3.8,3.8,60,0.00,,,0.00,WUHU216HW,2013-04-21 08:30:00,
2013-04-21 04:35:00,37.4,24.8,29.77,North,0,3.8,3.8,60,0.00,,,0.00,WUHU216HW,2013-04-21 08:35:00,
2013-04-21 05:00:00,37.6,25.0,29.78,NNW,338,5.8,5.8,60,0.00,,,0.00,WUHU216HW,2013-04-21 09:00:00,
2013-04-21 05:05:00,37.6,25.0,29.78,NNW,338,5.8,5.8,60,0.00,,,0.00,WUHU216HW,2013-04-21 09:05:00,
2013-04-21 05:30:00,37.4,24.8,29.79,NNE,23,0.4,0.4,60,0.00,,,0.00,WUHU216HW,2013-04-21 09:30:00,
2013-04-21 05:35:00,37.4,24.8,29.79,NNE,23,0.4,0.4,60,0.00,,,0.00,WUHU216HW,2013-04-21 09:35:00,
2013-04-21 05:59:00,36.2,23.7,29.81,SE,135,1.1,1.1,60,0.00,,,0.00,WUHU216HW,2013-04-21 09:59:00,
2013-04-21 06:00:00,36.2,23.7,29.81,SE,135,1.1,1.1,60,0.00,,,0.00,WUHU216HW,2013-04-21 10:00:00,
2013-04-21 06:05:00,36.2,23.7,29.81,SE,135,1.1,1.1,60,0.00,,,0.00,WUHU216HW,2013-04-21 10:05:00,
2013-04-21 06:30:00,34.9,23.2,29.83,North,0,0.0,0.0,62,0.00,,,0.00,WUHU216HW,2013-04-21 10:30:00,
2013-04-21 06:35:00,34.9,23.2,29.83,North,0,0.0,0.0,62,0.00,,,0.00,WUHU216HW,2013-04-21 10:35:00,
2013-04-21 06:59:00,34.4,23.8,29.85,NNE,23,0.0,0.0,65,0.00,,,0.00,WUHU216HW,2013-04-21 10:59:00,
2013-04-21 07:00:00,34.4,23.8,29.85,NNE,23,0.0,0.0,65,0.00,,,0.00,WUHU216HW,2013-04-21 11:00:00,
2013-04-21 07:05:00,34.4,23.8,29.85,NNE,23,0.0,0.0,65,0.00,,,0.00,WUHU216HW,2013-04-21 11:05:00,
2013-04-21 07:30:00,39.2,27.2,29.86,NNW,338,0.9,0.9,62,0.00,,,0.00,WUHU216HW,2013-04-21 11:30:00,
2013-04-21 07:35:00,39.2,27.2,29.86,NNW,338,0.9,0.9,62,0.00,,,0.00,WUHU216HW,2013-04-21 11:35:00,
2013-04-21 07:59:00,39.2,25.6,29.88,East,90,0.9,0.9,58,0.00,,,0.00,WUHU216HW,2013-04-21 11:59:00,
2013-04-21 08:00:00,39.2,25.6,29.88,East,90,0.9,0.9,58,0.00,,,0.00,WUHU216HW,2013-04-21 12:00:00,
2013-04-21 08:05:00,39.2,25.6,29.88,East,90,0.9,0.9,58,0.00,,,0.00,WUHU216HW,2013-04-21 12:05:00,
2013-04-21 08:30:00,39.8,22.6,29.89,ENE,68,10.5,10.5,50,0.00,,,0.00,WUHU216HW,2013-04-21 12:30:00,
2013-04-21 08:59:00,40.3,21.5,29.89,North,0,9.8,9.8,47,0.00,,,0.00,WUHU216HW,2013-04-21 12:59:00,
2013-04-21 09:30:00,41.2,22.9,29.89,North,0,9.6,9.6,48,0.00,,,0.00,WUHU216HW,2013-04-21 13:30:00,
2013-04-21 09:59:00,42.1,23.2,29.90,North,0,8.7,8.7,47,0.00,,,0.00,WUHU216HW,2013-04-21 13:59:00,
2013-04-21 10:30:00,43.0,23.1,29.90,NE,45,8.5,8.5,45,0.00,,,0.00,WUHU216HW,2013-04-21 14:30:00,
2013-04-21 10:59:00,43.6,24.6,29.90,NE,45,5.4,5.4,47,0.00,,,0.00,WUHU216HW,2013-04-21 14:59:00,
2013-04-21 11:30:00,44.3,24.1,29.90,NE,45,1.1,1.1,45,0.00,,,0.00,WUHU216HW,2013-04-21 15:30:00,
2013-04-21 11:59:00,45.7,26.0,29.89,ENE,68,1.3,1.3,46,0.00,,,0.00,WUHU216HW,2013-04-21 15:59:00,
2013-04-21 12:30:00,46.8,25.9,29.88,NNE,23,6.3,6.3,44,0.00,,,0.00,WUHU216HW,2013-04-21 16:30:00,
2013-04-21 12:59:00,47.5,26.6,29.88,ENE,68,0.7,0.7,44,0.00,,,0.00,WUHU216HW,2013-04-21 16:59:00,
2013-04-21 13:30:00,48.4,24.5,29.86,NE,45,4.7,4.7,39,0.00,,,0.00,WUHU216HW,2013-04-21 17:30:00,
2013-04-21 13:59:00,49.3,27.6,29.86,WSW,248,4.0,4.0,43,0.00,,,0.00,WUHU216HW,2013-04-21 17:59:00,
2013-04-21 14:30:00,50.8,27.3,29.85,ESE,113,4.7,4.7,40,0.00,,,0.00,WUHU216HW,2013-04-21 18:30:00,
2013-04-21 15:00:00,51.1,28.7,29.84,NE,45,8.5,8.5,42,0.00,,,0.00,WUHU216HW,2013-04-21 19:00:00,
2013-04-21 15:30:00,51.7,29.8,29.83,SSE,158,6.9,6.9,43,0.00,,,0.00,WUHU216HW,2013-04-21 19:30:00,
2013-04-21 16:00:00,52.2,26.6,29.82,NNE,23,9.8,9.8,37,0.00,,,0.00,WUHU216HW,2013-04-21 20:00:00,
2013-04-21 16:30:00,51.8,28.8,29.82,ESE,113,7.6,7.6,41,0.00,,,0.00,WUHU216HW,2013-04-21 20:30:00,
2013-04-21 17:00:00,52.4,28.1,29.82,NE,45,6.5,6.5,39,0.00,,,0.00,WUHU216HW,2013-04-21 21:00:00,
2013-04-21 17:30:00,52.2,25.2,29.82,NE,45,6.5,6.5,35,0.00,,,0.00,WUHU216HW,2013-04-21 21:30:00,
2013-04-21 17:59:00,52.7,26.4,29.82,ESE,113,2.7,2.7,36,0.00,,,0.00,WUHU216HW,2013-04-21 21:59:00,
2013-04-21 18:30:00,53.3,27.6,29.83,SE,135,6.3,6.3,37,0.00,,,0.00,WUHU216HW,2013-04-21 22:30:00,
2013-04-21 18:59:00,51.7,26.7,29.82,ENE,68,4.7,4.7,38,0.00,,,0.00,WUHU216HW,2013-04-21 22:59:00,
2013-04-21 19:30:00,50.4,27.0,29.82,East,90,5.4,5.4,40,0.00,,,0.00,WUHU216HW,2013-04-21 23:30:00,
2013-04-21 20:00:00,48.6,26.5,29.83,East,90,3.6,3.6,42,0.00,,,0.00,WUHU216HW,2013-04-22 00:00:00,
2013-04-21 20:05:00,48.6,26.5,29.83,East,90,3.6,3.6,42,0.00,,,0.00,WUHU216HW,2013-04-22 00:05:00,
2013-04-21 20:30:00,46.8,26.5,29.84,ESE,113,2.2,2.2,45,0.00,,,0.00,WUHU216HW,2013-04-22 00:30:00,
2013-04-21 20:35:00,46.8,26.5,29.84,ESE,113,2.2,2.2,45,0.00,,,0.00,WUHU216HW,2013-04-22 00:35:00,
2013-04-21 21:00:00,45.2,26.6,29.84,ENE,68,1.3,1.3,48,0.00,,,0.00,WUHU216HW,2013-04-22 01:00:00,
2013-04-21 21:05:00,45.2,26.6,29.84,ENE,68,1.3,1.3,48,0.00,,,0.00,WUHU216HW,2013-04-22 01:05:00,
2013-04-21 21:30:00,43.9,27.9,29.85,NE,45,2.9,2.9,53,0.00,,,0.00,WUHU216HW,2013-04-22 01:30:00,
2013-04-21 21:35:00,43.9,27.9,29.85,NE,45,2.9,2.9,53,0.00,,,0.00,WUHU216HW,2013-04-22 01:35:00,
2013-04-21 22:00:00,43.6,27.6,29.86,NE,45,3.1,3.1,53,0.00,,,0.00,WUHU216HW,2013-04-22 02:00:00,
2013-04-21 22:05:00,43.6,27.6,29.86,NE,45,3.1,3.1,53,0.00,,,0.00,WUHU216HW,2013-04-22 02:05:00,
2013-04-21 22:30:00,42.5,27.4,29.87,East,90,1.1,1.1,55,0.00,,,0.00,WUHU216HW,2013-04-22 02:30:00,
2013-04-21 22:35:00,42.5,27.4,29.87,East,90,1.1,1.1,55,0.00,,,0.00,WUHU216HW,2013-04-22 02:35:00,
2013-04-21 23:00:00,41.0,27.4,29.87,NNE,23,0.9,0.9,58,0.00,,,0.00,WUHU216HW,2013-04-22 03:00:00,
2013-04-21 23:05:00,41.0,27.4,29.87,NNE,23,0.9,0.9,58,0.00,,,0.00,WUHU216HW,2013-04-22 03:05:00,
2013-04-21 23:30:00,40.0,27.5,29.87,ESE,113,0.9,0.9,61,0.00,,,0.00,WUHU216HW,2013-04-22 03:30:00,
2013-04-21 23:35:00,40.0,27.5,29.87,ESE,113,0.9,0.9,61,0.00,,,0.00,WUHU216HW,2013-04-22 03:35:00,